Wind_Speed
13 13 13 13 14 14 15 15 16 16 17 17 18 19 19 19 20 20 20 20 21 21 21 22 23 23 24 24 24 24 24 24 26 27 27 27 27 28
13 13 13 12 12 13 15 16 16 17 17 18 18 19 19 20 20 20 20 20 21 22 22 22 24 24 24 25 25 24 25 25 26 27 27 28 28 28
11 12 12 12 13 13 14 15 15 16 16 17 17 18 19 20 20 20 20 20 20 21 22 22 23 24 24 24 24 24 24 25 25 26 26 26 27 27
11 12 12 11 11 12 13 13 14 14 16 17 18 18 19 20 21 21 22 22 21 21 21 22 23 22 22 23 23 23 24 24 25 25 25 25 25 26
11 11 11 12 11 12 13 14 14 16 17 18 19 19 20 21 21 22 22 22 23 22 22 22 23 23 23 23 24 24 24 24 24 24 24 24 25 25
10 10 11 12 12 13 13 14 15 15 16 17 18 18 19 20 21 21 22 22 22 22 21 21 22 23 23 23 24 24 25 24 24 24 24 25 26 27
11 11 12 13 14 15 15 16 16 17 18 19 19 19 19 20 21 22 22 22 22 22 22 23 23 23 23 23 24 24 24 24 24 25 25 26 26 27
11 12 13 14 15 15 16 17 18 18 19 19 20 20 20 21 21 22 23 22 22 23 24 24 24 24 24 24 24 24 24 24 24 25 25 26 26 26
13 14 14 15 16 17 18 19 19 19 20 20 21 21 22 22 22 22 22 23 23 24 25 24 25 25 24 24 24 23 23 23 24 25 25 26 26 26
15 15 16 16 17 18 19 20 20 21 21 21 22 22 22 22 22 22 22 23 24 25 25 24 25 25 25 24 23 23 23 23 23 24 25 26 26 27
17 17 18 19 19 20 20 21 21 22 22 22 22 22 22 22 22 23 23 23 24 24 24 24 24 24 24 24 24 24 24 23 23 24 25 25 26 27
18 18 19 20 21 22 22 22 22 23 23 23 23 23 23 23 23 24 24 24 24 24 24 24 24 24 23 24 24 24 24 24 24 24 25 25 26 26
19 20 21 22 22 23 22 22 22 23 23 23 23 23 23 24 24 24 24 24 23 23 23 23 23 23 23 24 24 24 24 25 25 25 25 26 26 26
20 21 21 22 22 22 22 23 23 23 23 23 23 23 23 23 23 24 24 23 23 23 23 23 23 23 24 24 24 24 25 25 26 26 26 27 27 27
22 22 22 22 22 22 23 23 24 23 23 23 23 23 23 23 23 23 24 23 23 23 23 23 23 23 24 24 24 25 25 25 26 26 27 27 28 28
22 23 22 22 22 23 23 24 24 24 23 23 23 23 23 23 23 23 23 24 24 24 24 24 25 25 24 24 25 25 26 26 27 27 27 27 28 28
24 23 24 24 24 24 24 24 24 23 24 24 24 24 24 24 24 24 24 24 24 24 24 25 25 25 25 25 25 25 26 26 27 27 27 27 27 28
25 25 25 25 25 24 24 24 24 24 24 24 24 24 24 24 25 24 24 24 24 25 25 25 25 25 25 25 26 26 26 26 26 26 26 26 27 27
25 25 25 25 24 24 24 24 24 24 24 24 24 24 24 24 24 24 24 25 25 25 25 25 25 26 26 26 26 26 26 26 26 26 26 27 27 28
24 25 25 24 24 24 24 23 23 23 24 25 24 24 24 25 25 25 25 26 26 26 26 26 26 27 27 27 26 26 27 27 27 27 27 28 28 28
23 23 23 23 23 23 23 23 23 23 24 25 26 26 26 26 26 26 26 26 26 26 26 27 27 28 28 28 27 27 27 27 28 28 28 28 28 28
22 22 22 23 23 22 22 22 23 24 24 26 27 27 27 27 27 27 27 27 27 26 27 27 27 26 26 26 26 27 26 27 27 27 27 27 27 28
22 22 22 22 22 22 22 23 24 24 25 25 26 26 26 27 27 28 27 27 27 27 26 26 25 26 26 26 26 27 27 27 27 27 26 27 27 27
Wind_Direction
268 267 270 273 270 268 267 272 272 270 268 270 269 272 274 277 280 280 280 282 282 281 280 280 279 280 280 278 281 280 277 272 270 269 267 266 265 264
270 270 270 271 271 273 274 272 271 272 274 273 273 273 275 277 280 281 281 282 283 282 281 281 282 283 283 281 282 280 279 276 274 271 269 266 265 265
271 272 271 270 271 274 276 273 272 275 276 276 278 277 279 280 279 280 282 282 286 286 283 283 284 284 284 284 284 282 282 280 277 273 271 268 266 264
272 273 272 272 274 275 275 275 275 280 282 281 283 281 280 280 278 280 281 284 286 286 286 286 286 285 284 285 286 284 284 281 279 275 271 269 267 266
273 272 269 271 274 279 281 281 279 282 284 285 286 285 283 282 281 281 282 284 286 286 287 288 288 286 286 286 286 286 286 283 279 275 271 269 267 266
274 274 276 277 276 280 284 284 286 287 287 287 287 287 287 285 284 282 283 285 287 287 288 289 291 292 291 288 286 286 287 284 281 276 273 271 269 268
274 276 278 280 281 283 286 288 290 291 293 293 291 290 290 290 288 285 286 288 290 290 290 291 292 293 292 291 290 289 287 283 281 279 277 274 272 270
279 279 279 280 281 283 285 288 292 293 293 293 294 295 294 293 290 289 288 289 290 290 290 292 293 293 292 291 290 289 287 284 282 280 277 275 273 271
285 283 283 283 282 284 285 287 290 292 292 292 293 294 293 294 293 290 289 290 291 291 291 291 292 293 292 292 291 289 287 286 283 280 278 277 274 273
285 284 284 284 285 286 286 287 288 290 293 294 294 294 295 295 294 292 291 292 292 291 290 291 292 294 294 292 291 290 288 286 285 283 281 279 277 276
284 284 284 284 287 288 286 287 290 292 294 295 294 294 295 296 295 294 294 293 293 292 291 291 292 293 294 292 291 290 288 285 284 284 283 282 280 279
282 284 285 286 286 287 286 285 289 292 293 293 293 294 295 295 295 296 296 296 296 294 292 292 291 292 292 292 292 290 288 287 285 284 284 282 281 280
283 287 288 288 287 288 288 286 288 292 294 293 292 293 295 296 296 296 298 297 298 298 295 294 293 291 292 293 293 292 289 288 286 285 285 284 282 280
286 288 288 290 289 289 289 289 289 291 294 295 295 295 296 296 296 296 296 296 295 297 296 295 295 294 292 293 293 291 290 288 287 287 286 284 282 280
287 288 289 290 290 290 290 290 291 292 293 294 294 295 296 295 295 295 295 295 295 296 296 297 296 294 294 293 292 291 291 290 289 288 286 284 283 282
286 287 288 288 289 289 290 290 290 290 291 292 293 295 295 296 296 296 295 296 296 295 296 296 296 295 294 294 293 291 291 292 291 290 288 287 286 285
284 284 287 287 288 288 288 288 288 288 289 290 292 294 294 295 296 297 297 297 297 295 294 294 295 295 295 295 295 294 293 293 292 291 290 289 289 288
282 284 285 286 287 289 289 288 287 287 288 289 291 293 294 295 296 296 296 298 298 297 296 294 295 296 295 295 295 295 295 294 294 292 292 292 290 290
283 284 285 285 287 288 288 288 288 288 288 289 290 292 294 296 297 296 295 296 297 298 296 294 294 295 295 295 295 295 296 296 296 295 293 293 293 292
284 285 287 287 288 288 288 288 288 288 288 289 289 290 292 294 297 298 297 296 296 296 295 294 293 293 294 294 294 295 295 295 295 294 293 293 293 292
285 286 288 289 289 288 288 288 287 288 289 289 289 289 291 292 293 296 297 297 297 296 295 294 293 293 293 293 293 292 292 293 294 294 293 293 293 293
286 287 289 290 290 290 289 289 290 291 291 291 291 291 291 291 293 295 295 296 297 297 296 295 294 293 293 293 294 294 294 294 295 295 295 294 294 295
285 287 291 292 291 290 289 289 291 292 292 292 293 292 291 292 292 293 293 294 296 297 296 297 296 295 294 294 293 293 295 295 295 295 295 295 295 296
Height
5823 5823 5823 5824 5824 5824 5825 5826 5826 5827 5827 5827 5827 5827 5827 5828 5828 5827 5827 5826 5826 5825 5824 5823 5822 5822 5820 5820 5819 5818 5817 5816 5816 5816 5817 5817 5818 5819
5820 5820 5820 5821 5821 5821 5822 5822 5822 5823 5823 5822 5822 5822 5822 5823 5823 5822 5822 5821 5820 5820 5819 5818 5817 5816 5814 5813 5812 5811 5810 5809 5809 5809 5809 5810 5811 5812
5817 5817 5817 5817 5818 5818 5818 5818 5818 5818 5818 5818 5818 5818 5818 5818 5817 5817 5816 5816 5815 5814 5813 5812 5811 5810 5808 5807 5806 5804 5804 5803 5802 5802 5802 5803 5804 5805
5814 5814 5814 5814 5814 5814 5814 5815 5815 5814 5814 5814 5813 5813 5813 5812 5812 5811 5811 5810 5809 5809 5807 5806 5805 5803 5802 5801 5799 5798 5797 5796 5795 5795 5796 5796 5797 5797
5811 5811 5811 5812 5811 5811 5811 5811 5810 5810 5810 5809 5809 5808 5808 5807 5807 5806 5804 5804 5803 5802 5801 5800 5799 5797 5796 5795 5793 5792 5791 5789 5789 5789 5789 5789 5790 5791
5808 5808 5808 5809 5808 5808 5808 5807 5807 5806 5805 5805 5804 5804 5803 5802 5801 5800 5799 5798 5797 5796 5795 5794 5793 5791 5790 5789 5787 5786 5784 5783 5782 5782 5782 5783 5783 5784
5805 5805 5805 5805 5805 5805 5805 5804 5803 5802 5801 5800 5800 5799 5798 5797 5796 5795 5794 5793 5792 5790 5789 5788 5787 5785 5784 5782 5781 5779 5778 5776 5776 5776 5776 5776 5776 5777
5802 5803 5802 5802 5802 5801 5801 5800 5799 5798 5797 5796 5795 5794 5793 5791 5790 5789 5788 5787 5786 5785 5783 5782 5780 5779 5777 5776 5775 5773 5772 5770 5769 5769 5769 5769 5769 5769
5799 5799 5798 5798 5797 5797 5796 5796 5795 5793 5792 5791 5790 5789 5787 5786 5785 5783 5782 5781 5780 5778 5777 5776 5774 5772 5771 5769 5768 5766 5765 5764 5763 5762 5762 5762 5762 5762
5795 5795 5794 5793 5793 5792 5791 5791 5789 5788 5787 5786 5785 5783 5781 5780 5779 5777 5776 5774 5773 5772 5770 5769 5767 5766 5764 5762 5761 5760 5759 5758 5756 5756 5755 5754 5754 5754
5791 5790 5789 5788 5787 5786 5786 5785 5784 5783 5782 5780 5779 5777 5775 5774 5773 5771 5770 5768 5767 5765 5763 5762 5760 5759 5758 5756 5754 5753 5752 5751 5750 5749 5748 5747 5747 5746
5786 5785 5784 5783 5782 5781 5780 5779 5778 5777 5776 5774 5773 5771 5770 5768 5767 5765 5763 5762 5760 5758 5756 5755 5753 5752 5751 5749 5747 5746 5745 5744 5743 5742 5740 5739 5739 5738
5781 5780 5779 5778 5776 5775 5774 5773 5773 5771 5770 5768 5767 5765 5764 5762 5761 5759 5757 5755 5753 5752 5750 5748 5746 5745 5744 5743 5741 5739 5738 5736 5735 5734 5733 5732 5731 5730
5775 5774 5773 5772 5771 5770 5769 5767 5766 5765 5764 5763 5761 5760 5758 5756 5754 5752 5751 5749 5747 5745 5743 5741 5740 5738 5737 5736 5734 5732 5730 5728 5727 5726 5724 5723 5722 5721
5769 5768 5767 5766 5765 5764 5763 5761 5760 5759 5758 5756 5755 5754 5752 5750 5748 5746 5744 5742 5740 5739 5737 5735 5733 5731 5730 5728 5727 5725 5723 5721 5719 5717 5716 5714 5713 5712
5764 5763 5762 5760 5759 5758 5757 5755 5754 5753 5751 5750 5749 5747 5745 5743 5741 5739 5737 5735 5734 5732 5730 5728 5726 5724 5722 5720 5719 5717 5715 5713 5711 5708 5707 5706 5704 5702
5757 5756 5755 5754 5753 5752 5750 5749 5747 5746 5745 5743 5742 5740 5739 5737 5735 5733 5731 5729 5727 5725 5723 5721 5719 5717 5715 5713 5711 5709 5707 5704 5702 5700 5699 5697 5696 5693
5750 5749 5748 5747 5746 5744 5743 5741 5740 5739 5738 5736 5735 5733 5732 5730 5728 5726 5724 5722 5720 5718 5715 5713 5711 5709 5707 5705 5703 5700 5698 5696 5694 5692 5690 5688 5687 5685
5742 5741 5740 5739 5738 5736 5735 5734 5733 5732 5731 5729 5728 5726 5725 5723 5721 5719 5717 5715 5712 5710 5708 5706 5704 5701 5699 5698 5695 5692 5690 5688 5686 5684 5681 5679 5678 5676
5735 5734 5733 5731 5730 5729 5728 5727 5726 5725 5724 5722 5720 5719 5718 5716 5714 5712 5709 5707 5705 5702 5700 5698 5696 5693 5691 5689 5687 5685 5682 5679 5677 5675 5673 5671 5669 5667
5727 5726 5725 5724 5723 5722 5721 5720 5719 5718 5716 5715 5713 5712 5710 5708 5706 5704 5702 5699 5697 5694 5692 5690 5687 5684 5682 5679 5678 5675 5673 5671 5668 5666 5664 5662 5660 5658
5720 5719 5718 5717 5716 5715 5714 5713 5712 5711 5709 5708 5706 5704 5702 5700 5698 5696 5694 5691 5689 5687 5684 5682 5679 5676 5674 5672 5669 5667 5665 5663 5661 5658 5656 5653 5650 5648
5714 5713 5712 5711 5710 5709 5708 5707 5705 5704 5702 5700 5698 5696 5694 5693 5690 5688 5686 5683 5681 5679 5676 5674 5671 5669 5666 5664 5662 5660 5658 5656 5653 5650 5648 5645 5642 5640